Weather History for KP28 - March, 2014

Change the Weather History Date:

Sunday, March 16, 2014

  Actual Average Record
Temperature  
Mean Temperature 37 °F 47 °F  
Max Temperature 48 °F 59 °F 89 °F (1908)
Min Temperature 25 °F 34 °F 15 °F (1906)
Degree Days  
Heating Degree Days 28 18  
Month to date heating degree days 457 329  
Since 1 July heating degree days 4408 3858  
Cooling Degree Days 0 0  
Month to date cooling degree days 0 0  
Year to date cooling degree days 0 0  
Moisture  
Dew Point 21 °F    
Average Humidity 55    
Maximum Humidity 78    
Minimum Humidity 31    
Precipitation  
Precipitation 0.00 in 0.09 in 2.05 in (1924)
Month to date precipitation 0.32 1.16  
Year to date precipitation 1.27 2.91  
Snow  
Snow 0.00 in 0.00 in - ()
Month to date snowfall 0.0 0.1  
Since 1 July snowfall 23.0 8.5  
Snow Depth 0.00 in    
Sea Level Pressure  
Sea Level Pressure 30.15 in    
Wind  
Wind Speed 19 mph (North)    
Max Wind Speed 38 mph    
Max Gust Speed 52 mph    
T = Trace of Precipitation, MM = Missing Value Source: NWS Daily Summary

Daily Weather History Graph

Daily Weather History Graph

Search for Another Location

Airport or City:

Trip Planner

Search our weather history database for the weather conditions in past years. The results will help you decide how hot, cold, wet, or windy it might be!

Date:

Astronomy

Mar. 16, 2014 Rise Set
Actual Time 7:43 AM CDT 7:42 PM CDT
Civil Twilight 7:17 AM CDT 8:08 PM CDT
Nautical Twilight 6:47 AM CDT 8:38 PM CDT
Astronomical Twilight 6:16 AM CDT 9:09 PM CDT
Moon 8:00 PM CDT (3/16) 7:28 AM CDT (3/16)
Length of Visible Light 12h 50m
Length of Day
11h 58m
Full, 100% of the Moon is Illuminated
Mar 16
Full
Mar 16
Full
Mar 23
Last Quarter
Mar 30
New
Apr 7
First Quarter

Hourly Weather History & Observations

Time (CDT) Temp. Windchill Dew Point Humidity Pressure Visibility Wind Dir Wind Speed Gust Speed Precip Events Conditions
12:56 AM 41.0 °F 29.0 °F 25.0 °F 53% 29.97 in - North 35.7 mph 43.7 mph N/A   Unknown
1:56 AM 37.9 °F 25.7 °F 27.0 °F 65% 30.01 in - North 29.9 mph 48.3 mph N/A   Unknown
2:56 AM 35.1 °F 21.8 °F 26.1 °F 70% 30.04 in - North 29.9 mph 42.6 mph N/A   Unknown
3:56 AM 33.1 °F 19.3 °F 24.1 °F 70% 30.05 in - North 28.8 mph 42.6 mph N/A   Unknown
4:56 AM 32.0 °F 18.1 °F 25.0 °F 75% 30.07 in - North 27.6 mph 35.7 mph N/A   Unknown
5:56 AM 34.0 °F 20.3 °F 26.1 °F 73% 30.10 in - North 29.9 mph 40.3 mph N/A   Unknown
6:56 AM 32.0 °F 18.4 °F 25.0 °F 75% 30.14 in - North 26.5 mph 38.0 mph N/A   Unknown
7:56 AM 30.9 °F 15.7 °F 25.0 °F 79% 30.16 in - North 32.2 mph 40.3 mph N/A   Unknown
8:56 AM 30.9 °F 15.9 °F 24.1 °F 76% 30.20 in - North 31.1 mph 43.7 mph N/A   Unknown
9:56 AM 32.0 °F 18.9 °F 24.1 °F 73% 30.25 in - North 24.2 mph 40.3 mph N/A   Unknown
10:56 AM 34.0 °F 20.8 °F 21.9 °F 61% 30.27 in - North 27.6 mph 39.1 mph N/A   Unknown
11:56 AM 39.0 °F 28.3 °F 21.9 °F 50% 30.27 in - NNE 24.2 mph 38.0 mph N/A   Unknown
12:56 PM 42.1 °F 32.3 °F 15.1 °F 34% 30.26 in - North 24.2 mph 33.4 mph N/A   Unknown
1:56 PM 44.1 °F 35.0 °F 16.0 °F 32% 30.23 in - NNE 24.2 mph 33.4 mph N/A   Unknown
2:56 PM 46.0 °F 39.3 °F 17.1 °F 31% 30.21 in - North 16.1 mph 31.1 mph N/A   Unknown
3:56 PM 46.0 °F 38.5 °F 17.1 °F 31% 30.18 in - North 19.6 mph 29.9 mph N/A   Unknown
4:56 PM 46.9 °F - 17.1 °F 30% 30.17 in - North 21.9 mph 27.6 mph N/A   Unknown
5:56 PM 46.9 °F - 17.1 °F 30% 30.17 in - North 15.0 mph 25.3 mph N/A   Unknown
6:56 PM 45.0 °F 38.9 °F 17.1 °F 33% 30.17 in - North 12.7 mph - N/A   Unknown
7:56 PM 39.0 °F 34.8 °F 17.1 °F 41% 30.15 in - NNE 5.8 mph - N/A   Unknown
8:56 PM 34.0 °F 31.0 °F 17.1 °F 50% 30.17 in - North 3.5 mph - N/A   Unknown
9:56 PM 33.1 °F - 16.0 °F 50% 30.17 in - Calm Calm - N/A   Unknown
10:56 PM 30.0 °F 25.2 °F 17.1 °F 59% 30.14 in - NNE 4.6 mph - N/A   Unknown
11:56 PM 28.9 °F - 17.1 °F 61% 30.13 in - Calm Calm - N/A   Unknown